International Skating Union - Official Site

ISU World Cup Speed Skating Heerenveen
November 10-12, 2017

Draw | Lap Times | Index | World Cup

Referee: Hanjo  HEIDEMAN  (NED)
Starter: Janny  SMEGEN  (NED)
StartTime: EndTime: Air Temp: Ice Temp: Humidity:
16:45 17:19 14.5 ℃ -13 ℃ 44%
Result Team Pursuit Men
Rankings as of Nov 12 2017 6:01PM
Rank: No.: Team: Nation: Time: Behind: Points:
Total 13
1 9 Korea (99) Seung-Hoon Lee (97) Min Seok Kim (93) Jaewon Chung (95) Hyong-Jun Joo KOR KOR 3:40.200.5 - 17.62 - (17.6)
1.0 - 30.62 - (13.0)
1.5 - 43.61 - (12.9)
2.0 - 56.63 - (13.0)
2.5 - 1:09.78 - (13.1)
3.0 - 1:23.13 - (13.3)
3.5 - 1:36.66 - (13.5)
4.0 - 1:50.38 - (13.7)
4.5 - 2:04.25 - (13.8)
5.0 - 2:17.81 - (13.5)
5.5 - 2:31.33 - (13.5)
6.0 - 2:45.06 - (13.7)
6.5 - 2:58.74 - (13.6)
7.0 - 3:12.49 - (13.7)
7.5 - 3:26.34 - (13.8)
8.0 - 3:40.20 - (13.8)
100
2 13 Norway (127) Sverre Lunde Pedersen (121) Håvard Bøkko (122) Sindre Henriksen (126) Simen Spieler Nilsen NOR NOR 3:41.480.5 - 17.46 - (17.4)
1.0 - 30.67 - (13.2)
1.5 - 43.93 - (13.2)
2.0 - 57.49 - (13.5)
2.5 - 1:11.01 - (13.5)
3.0 - 1:24.69 - (13.6)
3.5 - 1:38.41 - (13.7)
4.0 - 1:51.85 - (13.4)
4.5 - 2:05.45 - (13.6)
5.0 - 2:19.31 - (13.8)
5.5 - 2:32.90 - (13.5)
6.0 - 2:46.43 - (13.5)
6.5 - 2:59.99 - (13.5)
7.0 - 3:13.63 - (13.6)
7.5 - 3:27.47 - (13.8)
8.0 - 3:41.48 - (14.0)
1.28 80
3 6 New Zealand (130) Shane Dobbin (132) Reyon Kay (133) Peter Michael NZL NZL 3:42.220.5 - 18.56 - (18.5)
1.0 - 32.18 - (13.6)
1.5 - 45.51 - (13.3)
2.0 - 59.05 - (13.5)
2.5 - 1:12.80 - (13.7)
3.0 - 1:26.54 - (13.7)
3.5 - 1:40.33 - (13.7)
4.0 - 1:54.11 - (13.7)
4.5 - 2:07.66 - (13.5)
5.0 - 2:21.10 - (13.4)
5.5 - 2:34.50 - (13.4)
6.0 - 2:47.94 - (13.4)
6.5 - 3:01.34 - (13.4)
7.0 - 3:14.81 - (13.4)
7.5 - 3:28.31 - (13.5)
8.0 - 3:42.22 - (13.9)
2.02 70
4 8 Canada (25) Denny Morrison (13) Jordan Belchos (14) Ted-Jan Bloemen (17) Benjamin Donnelly CAN CAN 3:43.480.5 - 17.89 - (17.8)
1.0 - 31.32 - (13.4)
1.5 - 44.36 - (13.0)
2.0 - 57.61 - (13.2)
2.5 - 1:11.18 - (13.5)
3.0 - 1:24.82 - (13.6)
3.5 - 1:38.54 - (13.7)
4.0 - 1:52.31 - (13.7)
4.5 - 2:06.14 - (13.8)
5.0 - 2:19.86 - (13.7)
5.5 - 2:33.62 - (13.7)
6.0 - 2:47.46 - (13.8)
6.5 - 3:01.30 - (13.8)
7.0 - 3:15.15 - (13.8)
7.5 - 3:29.25 - (14.0)
8.0 - 3:43.48 - (14.2)
3.28 60
5 4 Russia (157) Danila Semerikov (156) Alexander Rumyantsev (148) Sergey Gryaztsov (158) Sergey Trofimov RUS RUS 3:43.540.5 - 17.88 - (17.8)
1.0 - 31.33 - (13.4)
1.5 - 44.77 - (13.4)
2.0 - 57.85 - (13.0)
2.5 - 1:10.98 - (13.1)
3.0 - 1:24.44 - (13.4)
3.5 - 1:37.97 - (13.5)
4.0 - 1:51.71 - (13.7)
4.5 - 2:05.63 - (13.9)
5.0 - 2:19.57 - (13.9)
5.5 - 2:33.75 - (14.1)
6.0 - 2:47.64 - (13.8)
6.5 - 3:01.46 - (13.8)
7.0 - 3:15.37 - (13.9)
7.5 - 3:29.28 - (13.9)
8.0 - 3:43.54 - (14.2)
3.34 50
6 11 Italy (65) Andrea Giovannini (68) Nicola Tumolero (63) Riccardo Bugari (64) Davide Ghiotto ITA ITA 3:44.950.5 - 17.79 - (17.7)
1.0 - 31.29 - (13.5)
1.5 - 44.62 - (13.3)
2.0 - 58.13 - (13.5)
2.5 - 1:11.90 - (13.7)
3.0 - 1:25.52 - (13.6)
3.5 - 1:39.29 - (13.7)
4.0 - 1:52.81 - (13.5)
4.5 - 2:06.66 - (13.8)
5.0 - 2:20.44 - (13.7)
5.5 - 2:34.32 - (13.8)
6.0 - 2:48.55 - (14.2)
6.5 - 3:02.69 - (14.1)
7.0 - 3:16.59 - (13.9)
7.5 - 3:30.77 - (14.1)
8.0 - 3:44.95 - (14.1)
4.75 45
7 10 Japan (79) Ryosuke Tsuchiya (75) Shota Nakamura (80) Shane Williamson (71) Seitaro Ichinohe JPN JPN 3:45.560.5 - 17.74 - (17.7)
1.0 - 31.36 - (13.6)
1.5 - 45.03 - (13.6)
2.0 - 58.73 - (13.6)
2.5 - 1:12.21 - (13.4)
3.0 - 1:25.77 - (13.5)
3.5 - 1:39.54 - (13.7)
4.0 - 1:53.21 - (13.6)
4.5 - 2:07.11 - (13.9)
5.0 - 2:21.18 - (14.0)
5.5 - 2:35.37 - (14.1)
6.0 - 2:49.30 - (13.9)
6.5 - 3:03.40 - (14.0)
7.0 - 3:17.34 - (13.9)
7.5 - 3:31.37 - (14.0)
8.0 - 3:45.56 - (14.1)
5.36 40
8 3 USA (175) Joey Mantia (173) Brian Hansen (174) Emery Lehman (172) Jonathan Garcia USA USA 3:45.750.5 - 17.81 - (17.8)
1.0 - 30.93 - (13.1)
1.5 - 44.01 - (13.0)
2.0 - 57.57 - (13.5)
2.5 - 1:10.96 - (13.3)
3.0 - 1:24.42 - (13.4)
3.5 - 1:38.20 - (13.7)
4.0 - 1:51.88 - (13.6)
4.5 - 2:05.71 - (13.8)
5.0 - 2:19.69 - (13.9)
5.5 - 2:34.00 - (14.3)
6.0 - 2:48.20 - (14.1)
6.5 - 3:02.69 - (14.4)
7.0 - 3:16.90 - (14.2)
7.5 - 3:31.17 - (14.2)
8.0 - 3:45.75 - (14.5)
5.55 35
9 7 Poland (140) Konrad Niedzwiedzki (143) Jan Szymanski (136) Zbigniew Bródka (145) Adrian Wielgat POL POL 3:46.130.5 - 17.83 - (17.8)
1.0 - 31.46 - (13.6)
1.5 - 45.00 - (13.5)
2.0 - 58.68 - (13.6)
2.5 - 1:12.59 - (13.9)
3.0 - 1:26.30 - (13.7)
3.5 - 1:40.14 - (13.8)
4.0 - 1:54.15 - (14.0)
4.5 - 2:07.83 - (13.6)
5.0 - 2:21.39 - (13.5)
5.5 - 2:35.29 - (13.9)
6.0 - 2:49.33 - (14.0)
6.5 - 3:03.68 - (14.3)
7.0 - 3:17.77 - (14.0)
7.5 - 3:31.88 - (14.1)
8.0 - 3:46.13 - (14.2)
5.93 30
10 12 Netherlands (120) Koen Verweij (102) Jorrit Bergsma (103) Jan Blokhuijsen NED NED 3:47.560.5 - 18.14 - (18.1)
1.0 - 31.51 - (13.3)
1.5 - 45.03 - (13.5)
2.0 - 58.60 - (13.5)
2.5 - 1:12.38 - (13.7)
3.0 - 1:26.35 - (13.9)
3.5 - 1:39.87 - (13.5)
4.0 - 1:53.50 - (13.6)
4.5 - 2:07.26 - (13.7)
5.0 - 2:21.18 - (13.9)
5.5 - 2:35.30 - (14.1)
6.0 - 2:49.76 - (14.4)
6.5 - 3:04.20 - (14.4)
7.0 - 3:18.73 - (14.5)
7.5 - 3:33.18 - (14.4)
8.0 - 3:47.56 - (14.3)
7.36 25
11 5 China (28) Alemasi Kahanbai (34) Aerchenghazi Xiakaini (31) Hanyang Shen (32) Dasituer Tuersonghan CHN CHN 3:54.710.5 - 18.00 - (18.0)
1.0 - 31.60 - (13.6)
1.5 - 45.06 - (13.4)
2.0 - 58.45 - (13.3)
2.5 - 1:12.20 - (13.7)
3.0 - 1:26.04 - (13.8)
3.5 - 1:40.21 - (14.1)
4.0 - 1:54.62 - (14.4)
4.5 - 2:08.79 - (14.1)
5.0 - 2:23.07 - (14.2)
5.5 - 2:37.97 - (14.9)
6.0 - 2:53.06 - (15.0)
6.5 - 3:08.45 - (15.3)
7.0 - 3:23.74 - (15.2)
7.5 - 3:39.13 - (15.3)
8.0 - 3:54.71 - (15.5)
14.51 21
12 2 Kazakhstan (83) Maksim Baklashkin (84) Alexander Klenko (89) Dmitry Morozov (88) Fedor Mezentsev KAZ KAZ 3:58.390.5 - 18.28 - (18.2)
1.0 - 32.18 - (13.8)
1.5 - 45.75 - (13.5)
2.0 - 59.55 - (13.7)
2.5 - 1:13.29 - (13.7)
3.0 - 1:27.30 - (14.0)
3.5 - 1:41.45 - (14.1)
4.0 - 1:55.82 - (14.3)
4.5 - 2:10.21 - (14.3)
5.0 - 2:24.92 - (14.7)
5.5 - 2:39.74 - (14.8)
6.0 - 2:54.84 - (15.0)
6.5 - 3:09.97 - (15.1)
7.0 - 3:25.55 - (15.5)
7.5 - 3:41.81 - (16.2)
8.0 - 3:58.39 - (16.5)
18.19 18
13 1 Czech Republic (40) Sebastian Druszkiewicz (41) Jakub Kopriva (39) Sebastien Brieštansky CZE CZE 4:10.440.5 - 18.94 - (18.9)
1.0 - 33.40 - (14.4)
1.5 - 47.58 - (14.1)
2.0 - 1:02.08 - (14.5)
2.5 - 1:16.71 - (14.6)
3.0 - 1:31.61 - (14.9)
3.5 - 1:46.59 - (14.9)
4.0 - 2:01.83 - (15.2)
4.5 - 2:17.18 - (15.3)
5.0 - 2:32.93 - (15.7)
5.5 - 2:48.80 - (15.8)
6.0 - 3:05.00 - (16.1)
6.5 - 3:21.19 - (16.1)
7.0 - 3:37.55 - (16.3)
7.5 - 3:53.97 - (16.4)
8.0 - 4:10.44 - (16.4)
30.24 16